This is the latest recevied weather packets stored in our database for station/object KK7ISX. If no packets are shown the sender has not sent any weather packets the latest 10 day(s).
| Time | Temp. | Humidity | Pressure | Rain* | Wind** | Luminosity | Snow |
|---|---|---|---|---|---|---|---|
| 1777933157 | 26.67° C | 30% | 1005.1 hPa | 0 mm | - | 549 W/m² | - |
| 1777932853 | 26.67° C | 29% | 1005.2 hPa | 0 mm | - | 560 W/m² | - |
| 1777932551 | 26.67° C | 29% | 1005 hPa | 0 mm | - | 572 W/m² | - |
| 1777932247 | 26.11° C | 30% | 1005.3 hPa | 0 mm | - | 587 W/m² | - |
| 1777931944 | 26.11° C | 29% | 1005.5 hPa | 0 mm | - | 599 W/m² | - |
| 1777931641 | 26.67° C | 30% | 1005.5 hPa | 0 mm | - | 604 W/m² | - |
| 1777931337 | 25.56° C | 30% | 1005.7 hPa | 0 mm | - | 618 W/m² | - |
| 1777931034 | 25.56° C | 32% | 1005.8 hPa | 0 mm | - | 624 W/m² | - |
| 1777930731 | 26.11° C | 33% | 1005.7 hPa | 0 mm | - | 631 W/m² | - |
| 1777930426 | 25.56° C | 33% | 1005.6 hPa | 0 mm | - | 640 W/m² | - |
| 1777930124 | 25.56° C | 32% | 1005.8 hPa | 0 mm | - | 648 W/m² | - |
| 1777929820 | 25° C | 34% | 1005.9 hPa | 0 mm | - | 657 W/m² | - |
| 1777929518 | 25° C | 35% | 1005.9 hPa | 0 mm | - | 665 W/m² | - |
| 1777929213 | 25° C | 34% | 1006.3 hPa | 0 mm | - | 670 W/m² | - |
| 1777928911 | 25° C | 34% | 1006.3 hPa | 0 mm | - | 678 W/m² | - |
| 1777928608 | 25° C | 35% | 1006.4 hPa | 0 mm | - | 684 W/m² | - |
| 1777928305 | 25° C | 35% | 1006.5 hPa | 0 mm | - | 690 W/m² | - |
| 1777928003 | 24.44° C | 35% | 1006.6 hPa | 0 mm | - | 695 W/m² | - |
| 1777927701 | 24.44° C | 36% | 1006.6 hPa | 0 mm | - | 702 W/m² | - |
| 1777927399 | 25° C | 35% | 1006.6 hPa | 0 mm | - | 707 W/m² | - |
| 1777927098 | 25° C | 34% | 1006.7 hPa | 0 mm | - | 713 W/m² | - |
| 1777926795 | 24.44° C | 35% | 1006.7 hPa | 0 mm | - | 718 W/m² | - |
| 1777926490 | 24.44° C | 36% | 1006.7 hPa | 0 mm | - | 723 W/m² | - |
| 1777926188 | 23.89° C | 35% | 1006.7 hPa | 0 mm | - | 726 W/m² | - |
| 1777925884 | 24.44° C | 34% | 1007 hPa | 0 mm | - | 731 W/m² | - |
* Rain latest hour (hover to see other rain measurements)
** Current wind speed in m/s (hover to see current wind gust speed)